カタログに戻る

AE1A

運用中科学SSO
NORAD 68487·PAYLOAD·🇳🇴 Norway

打ち上げ Mar 30, 2026 から Vandenberg Space Force Base

Loading…

次のパス (今後24時間)

TLE

最新Source: Space-Track

元期: Sep 14, 2026, 14:56 UTC

1 68487U 26067BZ  26257.62223088  .00003408  00000-0  33124-3 0  9998
2 68487  97.7639 214.6646 0001279  20.2984 339.8286 14.93239563 25077

AllMySatでAE1Aをリアルタイム追跡

Download on the App Store